Regional Weather Roundup
Issued by NWS Grand Forks, ND

Home | Current Version | Previous Version | Text Only | Print | Product List | Glossary Off
Versions: 1 2 3 4 5 6 7 8 9 10 11 12 13 14 15 16 17 18 19 20 21 22 23 24 25 26 27 28 29 30 31 32 33 34 35 36 37 38 39 40 41 42 43 44 45 46 47 48 49 50

000
ASUS43 KFGF 280310
RWRFGF
PRAIRIE TO PINES  WEATHER ROUNDUP
NATIONAL WEATHER SERVICE EASTERN NORTH DAKOTA/GRAND FORKS ND
1000 PM CDT WED MAY 27 2015

 **SATELLITE DATA USED TO AUGMENT SKY COVER AT AUTOMATED STATIONS**
 *****  WEATHER ACROSS EASTERN NORTH DAKOTA  *****

CITY           SKY/WX    TMP DP  RH WIND       PRES   REMARKS
GRAND FORKS    MOCLDY    62  51  67 NW3       29.98R
GRAND FRKS AFB CLOUDY    60  49  68 NW2       29.99R
GRAND FRKS NWS   N/A     66 N/A N/A NW2         N/A
DEVILS LAKE    CLOUDY    66  48  52 E13       29.96R
FARGO          CLOUDY    72  53  51 NW16      29.99R
WAHPETON ARPT  MOCLDY    70  52  52 SE3       29.98R
$$

 ***** WEATHER ACROSS CENTRAL AND WESTERN NORTH DAKOTA  *****

CITY           SKY/WX    TMP DP  RH WIND       PRES   REMARKS
BISMARCK       CLOUDY    65  56  72 NW15      29.98R
MINOT          CLOUDY    63  54  72 SW5       29.94R
JAMESTOWN      MOCLDY    66  54  65 E18       29.95S
MINOT AFB      CLOUDY    63  60  93 SW6       29.92S
GARRISON         N/A     60  57  89 CALM      29.96R
WILLISTON      CLOUDY    63  53  70 SE8       29.91R
DICKINSON      CLOUDY    56  55  97 SE9       29.90F
HETTINGER      CLOUDY    54  52  93 CALM      29.95R
$$

 *****  OTHER AIRPORT OBSERVATIONS IN OUR AREA  *****

CITY           SKY/WX    TMP DP  RH WIND       PRES   REMARKS
WALHALLA         N/A     63  41  45 MISG      30.00S
GRAFTON AIRPOR FAIR      64  46  52 N8        29.99R
VALLEY CITY AR FAIR      63  63 100 E9        29.98S
CANDO          FAIR      66  46  48 E10       29.97R
CAVALIER APRT  FAIR      64  41  42 NE9       29.99F
GWINNER        NOT AVBL
SHEYENNE NWR     N/A     70  53  53 NE8       29.95S
ROLLA          FAIR      63  45  51 E10G16    29.99S
 ***** THE ABOVE OBSERVATIONS ARE NON NWS ARE NOT QUALITY
       CONTROLLED AND MAY MIS-REPORT RAIN FOR SNOW...
$$

  *****  WEATHER ACROSS NORTHERN MINNESOTA  *****

CITY           SKY/WX    TMP DP  RH WIND       PRES   REMARKS
FLAG ISLAND    CLEAR     63  46  55 E6        30.01R
WARROAD        CLEAR     59  54  82 NE8       30.02R
ROSEAU         CLEAR     61  48  63 E6        30.02R
HALLOCK        MOCLDY    63  46  55 N8        29.99S
THF RVR FALLS  MOCLDY    66  48  52 NE6       30.00R
BAUDETTE       CLEAR     59  46  62 NE5       30.01R
WASKISH        PTCLDY    57  48  72 CALM      30.02R
CROOKSTON      MOCLDY    70  52  52 NE6       29.99S
STEPHEN NDAWN    N/A     59  46  63 NE5         N/A
GREENBUSH NDAW   N/A     61  54  77 NW3         N/A
$$
  *****  WEATHER ACROSS CENTRAL AND WEST MINNESOTA  *****

CITY           SKY/WX    TMP DP  RH WIND       PRES   REMARKS
FOSSTON        PTCLDY    61  46  59 CALM      30.01R
BEMIDJI        MOCLDY    60  52  75 CALM      30.01R
PARK RAPIDS    PTCLDY    69  52  54 CALM      30.00R
ELBOW LAKE     FAIR      69  60  74 E5        30.00R
WADENA         PTCLDY    63  52  67 CALM      30.01R
DETROIT LAKES  MOCLDY    72  48  43 CALM      30.02R
MOORHEAD       CLOUDY    70  54  56 NE3       29.99R
FERGUS FALLS   PTCLDY    70  52  52 E5        29.99R
MORRIS MN      PTCLDY    70  52  52 E5        29.99R
STAPLES        CLEAR     64  54  68 CALM      30.01R
$$
  *****  WEATHER ELSEWHERE ACROSS MINNESOTA  *****

CITY           SKY/WX    TMP DP  RH WIND       PRES   REMARKS
DULUTH         CLEAR     67  50  54 N6        30.01R
INTRNTL FALLS  CLEAR     51  46  83 NE3       30.02R
ELY            NOT AVBL
CLOQUET        CLEAR     63  48  59 CALM      30.01R
WHEATON        PTCLDY    64  55  72 SE7       29.99R
BRAINERD       CLEAR     64  57  78 CALM      30.01R
HIBBING        CLEAR     60  48  64 N3        30.01R
ALEXANDRIA     PTCLDY    68  54  60 CALM      30.03R
SAINT CLOUD    CLEAR     64  55  72 CALM      30.00R
MINNEAPOLIS    PTCLDY    76  53  44 CALM      30.01R
$$

  *****  WEATHER ACROSS SOUTH DAKOTA  *****

CITY           SKY/WX    TMP DP  RH WIND       PRES   REMARKS
SIOUX FALLS    PTCLDY    67  52  58 S8        30.01R
BROOKINGS      MOCLDY    73  50  43 S6        30.02R
WATERTOWN      CLOUDY    74  48  39 CALM      30.01R
HURON            N/A    N/A N/A N/A MISG      29.96S
SISSETON         N/A     69  55  60 CALM      29.97R
ABERDEEN       CLOUDY    68  56  65 S5        29.96R
MITCHELL       CLOUDY    70  55  59 SE8       29.97S
PIERRE         LGT RAIN  62  58  86 W14       29.95R
MOBRIDGE       LGT RAIN  65  59  81 SE10      29.93R
RAPID CITY     CLEAR     62  53  72 S8        29.91R
$$

  *****  SOME WEATHER IN NEARBY STATES *****

CITY           SKY/WX    TMP DP  RH WIND       PRES   REMARKS
GLASGOW MT     CLOUDY    66  54  65 CALM      29.88R
GREAT FALLS MT MOCLDY    58  49  72 NW3       29.96S
CHEYENNE WY    MOCLDY    57  48  72 E6        30.10R
SCOTTSBLUFF NE CLEAR     62  55  77 SE13      30.00R
OMAHA NE       CLOUDY    70  54  56 S6        30.05R
DES MOINES IA  PTCLDY    72  59  63 S6        30.06R
DAVENPORT IA   CLEAR     67  58  72 S6        30.10R
CHICAGO IL     CLEAR     65  54  67 E3        30.10R
EAU CLAIRE WI  CLEAR     66  58  75 NE6       30.02R
LA CROSSE WI   CLEAR     72  60  66 S3        30.03R
$$

  *****  SOME NATIONAL WEATHER *****

CITY           SKY/WX    TMP DP  RH WIND       PRES   REMARKS
LA GUARDIA NY  CLOUDY    68  62  81 S7        30.14F
RALEIGH NC     MOCLDY    72  68  87 CALM      30.23R
ATLANTA GA     CLOUDY    77  66  68 CALM      30.22R
NEW ORLEANS LA MOCLDY    74  68  81 CALM      30.09S
OKLAHOMA CITY  CLOUDY    70  65  84 SE8       30.03R
ALBUQUERQUE NM CLOUDY    73  32  22 NE12      30.05S
SALT LAKE CITY CLOUDY    56  50  80 N16       30.08R
LOS ANGELES CA PTCLDY    60  55  83 W10       29.98R
BOISE ID       CLEAR     69  39  33 N8        29.96S
SEATTLE WA     PTCLDY    72  55  55 W5        30.02S
$$

*** WEATHER ACROSS MANITOBA...SASKATCHEWAN AND ONTARIO ***
                ***ONTARIO***

CITY           SKY/WX    TMP DP  RH WIND       PRES   REMARKS
GERALDTON      PTCLDY    45  37  76 E8        30.13R
THUNDER BAY    PTCLDY    57  43  58 N5        30.06R
SIOUX LOOKOUT  PTCLDY    52  39  62 VRB2      30.09R
TORONTO        CLOUDY    68  61  77 SW15G24   29.98R
BIG TROUT LK   MOCLDY    37  28  70 W2        30.15R
PICKLE LAKE    NOT AVBL
DRYDEN         CLEAR     55  45  67 E6        30.06R
KENORA         PTCLDY    57  43  58 NE7       30.05R
$$
                *** MANITOBA***

CITY           SKY/WX    TMP DP  RH WIND       PRES   REMARKS
BRANDON        MOCLDY    55  37  50 E14       30.01R
DAUPHIN        CLEAR     52  30  43 E7        30.04R
ISLAND LAKE    PTCLDY    46  32  57 SE3       30.13R
PILOT MOUND    NOT AVBL
THE PAS        PTCLDY    48  32  53 SE8       30.05S
THOMPSON       CLOUDY    50  25  37 E3        30.07S
WINNIPEG       PTCLDY    55  39  54 NE9       30.04R
LYNN LAKE      LGT RAIN  52  34  50 E6        29.97R
CHURCHILL      CLOUDY    30  25  80 E8        30.26S WCI  23
GILLAM         MOCLDY    37  25  60 E8        30.18S
$$
                ***SASKATCHEWAN***

CITY           SKY/WX    TMP DP  RH WIND       PRES   REMARKS
ESTEVAN        LGT RAIN  59  55  88 NE12      29.95R
KINDERSLEY     CLOUDY    64  48  55 SE12      29.92R
LLOYDMINSTER   MOCLDY    63  45  51 E7        29.87S
PRINCE ALBERT  CLOUDY    55  39  54 CALM      29.93F
REGINA         MOCLDY    64  48  55 SE12      29.94R
YORKTON        CLEAR     55  37  50 E9        29.98S
N. BATTLEFORD  PTCLDY    64  39  39 SE12      29.91S
LA RONGE       MOCLDY    59  39  47 S5        29.87S
SASKATOON      MOCLDY    63  41  45 E3        29.94F
SWIFT CURRENT  MOCLDY    57  48  72 E5        29.93S
$$
NOTE: THESE ARE AUTOMATED STATIONS WITH LIMITED QUALITY CONTROL
      "FAIR" INDICATES FEW OR NO CLOUDS BELOW 12,000 FEET WITH NO
      SIGNIFICANT WEATHER AND/OR OBSTRUCTIONS TO VISIBILITY.
      SKY/WX - SKY CONDITION AND SIGNIFICANT WEATHER.
      TMP - AIR TEMPERATURE.    DP   - DEWPOINT TEMPERATURE.
      RH  - RELATIVE HUMIDITY.  PRES - PRESSURE.
      HX  - HEAT INDEX.         WCI  - WIND CHILL INDEX.
$



USA.gov is the U.S. government's official web portal to all federal, state and local government web resources and services.